Regional Weather Roundup
Issued by NWS Northern Indiana

Home | Current Version | Previous Version | Graphics & Text | Print | Product List | Glossary On
Versions: 1 2 3 4 5 6 7 8 9 10 11 12 13 14 15 16 17 18 19 20 21 22 23 24 25 26 27 28 29 30 31 32 33 34 35 36 37 38 39 40 41 42 43 44 45 46 47 48 49 50
000
ASUS43 KIWX 041110
RWRIWX

KIWX WEATHER ROUNDUP
NATIONAL WEATHER SERVICE NORTHERN INDIANA
700 AM EDT MON MAY 04 2015

NOTE: "FAIR" INDICATES FEW OR NO CLOUDS BELOW 12,000 FEET WITH NO
SIGNIFICANT WEATHER AND/OR OBSTRUCTIONS TO VISIBILITY.

* THESE STATIONS ARE NOT UNDER NWS QUALITY CONTROL. THEY ALSO MAY NOT
  REPORT WEATHER SUCH AS PRECIPITATION OR FOG.

INZ001>027-041200-
NORTHERN INDIANA

CITY           SKY/WX    TMP DP  RH WIND       PRES   REMARKS
GARY*          CLOUDY    63 N/A N/A S14       29.94F
VALPARAISO     CLOUDY    61  51  70 SW10      29.98S
MICHIGAN CITY* RAIN      63  45  51 S9        29.95F
LAPORTE*       CLOUDY    64  49  58 SW12      29.98R
KNOX*          CLOUDY    59  36  41 SW9       29.98S
SOUTH BEND     CLOUDY    65  46  50 SW15      29.98R
ELKHART*       PTCLDY    64  45  48 SW8G16    29.98
GOSHEN         CLOUDY    63  50  62 S14       30.00R
MONTICELLO*    CLOUDY    64  49  58 W8G17     30.04R
LOGANSPORT*    CLOUDY    61  45  55 S12       30.03R
ROCHESTER*     LGT RAIN  64  50  59 SW9       30.04R
WARSAW*        CLOUDY    64  46  52 SW8       30.01R
ANGOLA*        CLOUDY    63  48  59 S10       30.00S
FORT WAYNE     MOCLDY    60  49  66 S12       30.04S
HUNTINGTON*    CLOUDY    61  48  61 S7        30.04R
PERU/GRISSOM   MOCLDY    63  49  59 SW15      30.02R
MARION*        PTCLDY    58  47  66 S10       30.06R

$$
INZ028>050-041200-
CENTRAL INDIANA

CITY           SKY/WX    TMP DP  RH WIND       PRES   REMARKS
LAFAYETTE      CLOUDY    61  49  64 SW5       30.02R
MUNCIE*        CLEAR     61  48  62 S9        30.07R
INDIANAPOLIS   MOCLDY    59  48  67 S8        30.06R

$$
MIZ043>046-050>051-056>058-064>065-071>073-077>080-041200-
SOUTHWEST LOWER MICHIGAN

CITY           SKY/WX    TMP DP  RH WIND       PRES   REMARKS
BATTLE CREEK   CLOUDY    60  52  74 S8        29.97F
BENTON HARBOR  CLOUDY    64  48  56 S9        29.92F
COLDWATER*     CLOUDY    63  47  55 SW8       30.00R
HILLSDALE*     MOCLDY    61  48  62 S8        30.01S
HOLLAND        CLOUDY    62  49  62 SW10      29.92S
GRAND RAPIDS   CLOUDY    60  52  74 S10       29.92F
KALAMAZOO      CLOUDY    62  51  67 S7        29.97F
STURGIS*       CLOUDY    61  50  67 S13       29.99R
THREE RIVERS*  FAIR      64  47  55 S9        29.97S

$$
OHZ001>008-015>018-024>025-041200-
NORTHWEST OHIO

CITY           SKY/WX    TMP DP  RH WIND       PRES   REMARKS
WAUSEON*       FAIR      59  50  72 S9        30.04R
DEFIANCE       MOCLDY    61  49  64 S7        30.05R
FINDLAY        MOCLDY    62  48  60 S9        30.07R
TOLEDO EXPRESS CLOUDY    62  47  57 S9        30.04R
TOLEDO METCALF CLOUDY    64  47  53 S10       30.06R
LIMA           PTCLDY    60  47  61 S9        30.09R

$$
AND FOR LAKE MICHIGAN COASTAL AND OPEN LAKE BUOY OBSERVATIONS

STATION/POSITION TEMP    WIND        PRES    VSBY  WAVE
                 AIR SEA DIR/SP/G                  HT/PER
                 (F)     (DEG/KT/KT) (MB)    (MI)  (FT/S)
CALUMET HARBOR    63     180/  7/ 11   N/A
MICHIGAN CITY     64     170/ 13/ 15   N/A
BURNS HARBOR      62     180/ 11/ 14 1014.2S
SAINT JOSEPH      65     180/ 13/ 19 1014.2S
4 MI NW BRIDGMAN  56 47  230/ 10/ 12   N/A           2/ 3
MICHIGAN CITY     58 50  190/ 12/ 16   N/A           2/ 3

$$
&&


USA.gov is the U.S. government's official web portal to all federal, state and local government web resources and services.